DCCHB EDDF-EDWI

Flight info

Callsign DCCHB
Flight time N/A
Altitude 22000
Route MARUN8M/25C MARUN Y153 NIMIT/N0427F240 Y153 WRB N850 NIE Z88 WSN VFR DCT
Aircraft LJ35/M-SGHRWXY/SB1

Departure

Time N/A
Airport Frankfurt Main Airport (EDDF)

Arrival

Time 2026-04-24 19:12
Airport JadeWeser Airport (EDWI)
Time Latitude Longitude Altitude Speed Heading
2026-04-24 18:54 52.60634 9.03149 22174 ft 466 kts 349°
2026-04-24 18:55 52.66994 9.01827 21946 ft 448 kts 349°
2026-04-24 18:55 52.70050 9.01191 21427 ft 437 kts 349°
2026-04-24 18:55 52.73039 9.00563 20890 ft 428 kts 349°
2026-04-24 18:56 52.75934 8.99958 20315 ft 412 kts 349°
2026-04-24 18:56 52.78693 8.99383 19745 ft 398 kts 349°
2026-04-24 18:56 52.81407 8.98812 19181 ft 388 kts 349°
2026-04-24 18:56 52.84043 8.98257 18635 ft 373 kts 349°
2026-04-24 18:57 52.86544 8.97736 17973 ft 353 kts 349°
2026-04-24 18:57 52.88942 8.97229 17078 ft 342 kts 349°
2026-04-24 18:57 52.91275 8.96732 16184 ft 334 kts 350°
2026-04-24 18:57 52.93554 8.96250 15324 ft 326 kts 350°
2026-04-24 18:58 52.95784 8.95781 14500 ft 320 kts 350°
2026-04-24 18:58 52.97969 8.95319 13672 ft 313 kts 351°
2026-04-24 18:58 53.00109 8.94865 12806 ft 307 kts 351°
2026-04-24 18:58 53.02206 8.94420 11978 ft 301 kts 351°
2026-04-24 18:59 53.04262 8.93986 11281 ft 293 kts 351°
2026-04-24 18:59 53.06249 8.93566 10703 ft 283 kts 351°
2026-04-24 18:59 53.08170 8.93155 10142 ft 274 kts 351°
2026-04-24 18:59 53.10034 8.92755 9612 ft 264 kts 351°
2026-04-24 19:00 53.12087 8.92321 9217 ft 257 kts 351°
2026-04-24 19:00 53.13618 8.91993 9016 ft 264 kts 351°
2026-04-24 19:00 53.15447 8.91548 8737 ft 266 kts 345°
2026-04-24 19:00 53.17073 8.90129 8426 ft 267 kts 319°
2026-04-24 19:01 53.18221 8.87689 8163 ft 269 kts 304°
2026-04-24 19:01 53.19157 8.85034 7923 ft 268 kts 301°
2026-04-24 19:01 53.20062 8.82322 7678 ft 267 kts 301°
2026-04-24 19:01 53.20958 8.79605 7480 ft 266 kts 301°
2026-04-24 19:02 53.21556 8.77791 7406 ft 263 kts 301°
2026-04-24 19:02 53.22695 8.74311 7073 ft 249 kts 301°
2026-04-24 19:02 53.23503 8.71828 6812 ft 238 kts 300°
2026-04-24 19:02 53.24089 8.69267 6541 ft 239 kts 287°
2026-04-24 19:03 53.24433 8.66546 6312 ft 241 kts 284°
2026-04-24 19:03 53.24740 8.63813 6136 ft 236 kts 284°
2026-04-24 19:03 53.25024 8.61191 5902 ft 224 kts 283°
2026-04-24 19:03 53.25291 8.58679 5650 ft 215 kts 284°
2026-04-24 19:04 53.25540 8.56260 5376 ft 209 kts 283°
2026-04-24 19:04 53.25782 8.53855 5099 ft 215 kts 283°
2026-04-24 19:04 53.26041 8.51329 4850 ft 225 kts 283°
2026-04-24 19:04 53.26312 8.48708 4650 ft 231 kts 283°
2026-04-24 19:05 53.26585 8.46039 4495 ft 234 kts 283°
2026-04-24 19:05 53.26853 8.43378 4340 ft 231 kts 283°
2026-04-24 19:05 53.27116 8.40745 4174 ft 229 kts 283°
2026-04-24 19:05 53.27372 8.38129 3999 ft 229 kts 283°
2026-04-24 19:06 53.27624 8.35522 3839 ft 226 kts 284°
2026-04-24 19:06 53.27865 8.32920 3667 ft 227 kts 283°
2026-04-24 19:06 53.28102 8.30317 3499 ft 227 kts 283°
2026-04-24 19:06 53.28337 8.27719 3330 ft 225 kts 283°
2026-04-24 19:07 53.28572 8.25149 3157 ft 226 kts 283°
2026-04-24 19:07 53.28836 8.22519 2990 ft 231 kts 289°
2026-04-24 19:07 53.29187 8.20849 2907 ft 228 kts 298°
2026-04-24 19:07 53.30251 8.17814 2718 ft 227 kts 307°
2026-04-24 19:08 53.31121 8.15633 2500 ft 222 kts 307°
2026-04-24 19:08 53.32017 8.13450 2275 ft 239 kts 307°
2026-04-24 19:08 53.32969 8.11208 2082 ft 234 kts 307°
2026-04-24 19:08 53.34119 8.09328 1890 ft 233 kts 325°
2026-04-24 19:09 53.35511 8.07984 1712 ft 232 kts 335°
2026-04-24 19:09 53.37014 8.07042 1524 ft 227 kts 340°
2026-04-24 19:09 53.38507 8.06191 1343 ft 221 kts 340°
2026-04-24 19:09 53.39897 8.05423 1160 ft 206 kts 340°
2026-04-24 19:10 53.41217 8.04718 970 ft 190 kts 341°
2026-04-24 19:10 53.42424 8.04114 968 ft 167 kts 344°
2026-04-24 19:10 53.43535 8.03700 904 ft 160 kts 345°
2026-04-24 19:10 53.44624 8.03481 887 ft 155 kts 352°
2026-04-24 19:11 53.45712 8.03363 759 ft 160 kts 354°
2026-04-24 19:11 53.46805 8.03416 624 ft 157 kts
2026-04-24 19:11 53.47819 8.03766 505 ft 139 kts
2026-04-24 19:11 53.48767 8.04268 224 ft 146 kts 15°
2026-04-24 19:12 53.49711 8.04896 61 ft 143 kts 17°
2026-04-24 19:12 53.50442 8.05375 36 ft 63 kts 24°
2026-04-24 19:12 53.50635 8.05500 36 ft 9 kts 15°
2026-04-24 19:12 53.50650 8.05400 33 ft 10 kts 302°
2026-04-24 19:13 53.50675 8.05359 33 ft 3 kts
2026-04-24 19:13 53.50679 8.05362 33 ft 0 kts 31°